Location: Cuiry
(49.3858°N, 3.7708°E)
Time: 23:50:34
(UTC+00:00)

DNEPR-1 R/B - Pass Details

Date: 12 January 2026
Orbit: 586 x 1327 km, 64.6° (Epoch: 9 February)

Event Time Altitude Azimuth Distance (km) Brightness Sun altitude
Rises 18:05:21 0° 192° (SSW) 2,999 7.4 -18.1°
Reaches altitude 10° 18:07:55 10° 183° (S) 2,015 6.4 -18.5°
Enters shadow 18:11:39 32° 126° (SE) 1,039 4.3 -19.1°
